Temp
88 86 79 80 80 80 80 80 80 79 79 79 79 79 79 78 78 78 78 78 79 80 80 79 79 78 78 78 77 77 76 76 76 75 75 76 76 77 77 76 77 81 77
91 88 79 80 80 80 80 80 78 78 78 78 78 78 78 78 78 78 78 78 79 79 79 80 79 78 78 77 77 76 76 75 75 75 74 73 74 76 76 76 76 78 77
91 89 85 80 79 79 79 78 78 78 78 78 78 78 78 78 78 78 78 79 79 79 78 79 78 77 77 76 76 76 76 75 74 74 74 82 79 76 76 76 76 77 77
92 89 88 78 79 79 79 78 78 78 78 78 78 78 78 78 78 77 78 79 79 77 78 77 77 77 76 76 76 76 75 74 74 74 83 85 83 76 77 76 77 76 77
92 91 85 78 79 79 78 78 78 78 78 78 77 77 77 78 78 77 77 76 76 77 77 76 76 76 76 76 76 75 75 74 74 78 83 80 78 77 76 76 77 76 76
93 93 79 78 78 78 78 78 78 78 78 78 77 77 77 77 78 76 76 75 75 75 76 76 76 76 75 75 75 75 74 74 73 83 82 78 78 77 77 76 75 76 76
92 91 85 78 78 78 78 78 77 78 78 78 78 77 77 77 78 76 75 75 75 75 75 76 75 75 75 75 75 74 73 73 79 82 82 76 77 77 77 76 76 75 75
91 90 86 78 77 78 78 77 77 77 78 77 77 77 77 77 77 77 75 75 75 75 75 75 75 75 75 75 74 73 72 72 80 82 78 76 76 76 76 75 75 74 74
91 90 88 85 80 76 77 77 77 77 76 76 76 76 76 75 75 75 74 74 75 75 75 75 75 75 74 74 73 71 71 71 79 81 81 76 75 76 75 74 74 74 73
89 90 89 87 83 81 82 75 75 75 75 75 74 74 72 72 73 74 73 74 75 75 75 75 74 74 73 73 71 70 70 71 82 80 80 76 75 75 75 74 74 73 73
87 88 90 89 87 88 87 80 74 73 72 73 73 70 71 80 77 74 73 72 74 74 74 74 74 73 71 70 70 69 69 81 82 81 80 73 74 74 74 73 73 72 71
82 86 88 89 88 87 87 84 82 82 79 78 80 78 81 83 82 81 73 71 72 73 73 73 72 71 70 78 74 69 78 80 81 80 76 73 74 73 73 72 72 71 71
76 81 86 87 88 87 86 86 85 85 81 82 85 83 83 84 81 81 78 76 77 71 77 74 73 76 79 80 79 80 80 80 81 80 73 72 73 73 72 71 71 70 70
78 77 77 85 86 86 87 85 87 87 86 86 85 86 84 83 82 81 81 79 79 80 80 78 78 79 79 79 80 80 79 79 79 79 72 70 72 72 72 71 70 70 69
80 80 78 78 82 85 84 86 86 86 86 85 85 85 85 83 82 82 82 82 81 82 82 80 80 80 78 79 79 79 78 79 79 78 75 68 70 71 71 71 70 70 69
84 83 82 78 78 84 84 84 86 86 86 85 85 83 84 84 82 81 82 82 81 81 82 82 80 79 78 78 77 78 78 78 78 77 77 71 68 69 70 71 70 70 69
88 88 85 83 82 81 85 81 84 85 86 85 84 84 83 82 82 81 81 81 81 82 81 81 80 79 78 77 76 77 76 77 76 76 76 73 69 66 69 70 70 69 69
86 86 88 87 85 84 84 80 78 84 84 84 85 85 84 83 82 81 80 80 82 81 80 79 78 76 75 75 74 75 75 75 75 76 74 74 71 70 67 68 68 68 68
86 85 85 86 86 86 86 82 74 74 78 83 84 84 84 83 82 81 80 80 81 80 75 77 76 75 73 73 73 74 73 72 73 74 73 72 71 70 68 65 65 66 66
86 85 85 86 86 86 87 85 76 71 72 76 82 83 82 83 82 80 80 80 81 79 76 76 75 75 74 72 72 72 70 71 71 71 71 72 70 68 68 65 63 63 63
80 80 81 82 83 84 83 82 75 70 69 70 76 82 82 81 81 79 78 79 79 78 77 76 74 72 70 73 68 67 67 69 69 69 70 70 68 67 67 66 64 65 61
76 77 78 80 81 82 82 82 82 77 74 71 71 73 78 81 80 79 78 77 78 76 76 74 73 70 69 70 65 63 59 62 64 67 67 68 67 66 65 65 65 64 62
71 70 72 74 75 77 78 80 80 81 78 75 73 72 73 74 77 78 76 76 76 76 73 73 72 69 65 67 68 66 59 57 59 63 63 65 65 64 63 63 64 63 63
69 69 71 72 72 74 75 74 74 75 74 76 77 78 76 76 73 73 72 73 74 74 73 73 73 69 67 63 63 67 68 65 57 52 59 61 62 63 62 62 62 62 60
68 67 69 72 73 73 73 73 72 72 74 77 78 77 77 77 76 72 71 71 70 70 70 72 71 69 67 67 61 61 62 60 61 58 51 53 58 60 62 61 59 59 58
68 68 68 69 71 73 73 72 71 69 70 73 74 74 75 76 75 74 69 68 68 67 68 68 70 67 66 65 67 63 60 58 57 56 55 54 52 54 57 58 58 57 56
MSLP
1010.11 1011.21 1012.06 1012.55 1012.94 1013.32 1013.58 1013.84 1014.12 1014.43 1014.73 1015.00 1015.25 1015.48 1015.62 1015.80 1015.97 1016.08 1016.12 1016.20 1016.22 1016.21 1016.33 1016.48 1016.61 1016.80 1016.91 1017.04 1017.27 1017.42 1017.51 1017.71 1017.80 1017.92 1017.88 1017.85 1017.91 1017.94 1018.04 1018.02 1017.81 1017.71 1018.14
1010.03 1011.22 1012.21 1012.66 1013.04 1013.41 1013.77 1014.07 1014.40 1014.70 1014.95 1015.22 1015.51 1015.76 1015.98 1016.08 1016.20 1016.23 1016.27 1016.43 1016.47 1016.47 1016.58 1016.69 1016.89 1017.16 1017.29 1017.48 1017.62 1017.70 1017.85 1018.01 1018.10 1018.11 1018.10 1018.12 1018.25 1018.19 1018.20 1018.18 1018.04 1018.21 1018.29
1010.14 1011.21 1012.19 1012.74 1013.19 1013.59 1013.95 1014.37 1014.71 1014.98 1015.22 1015.48 1015.77 1016.05 1016.23 1016.38 1016.45 1016.45 1016.42 1016.43 1016.61 1016.73 1016.93 1017.06 1017.33 1017.52 1017.66 1017.78 1017.90 1018.02 1018.16 1018.28 1018.23 1018.07 1018.07 1017.78 1018.26 1018.48 1018.44 1018.54 1018.49 1018.54 1018.56
1010.18 1011.27 1011.97 1012.92 1013.37 1013.79 1014.16 1014.61 1014.97 1015.20 1015.48 1015.76 1016.05 1016.38 1016.53 1016.56 1016.58 1016.62 1016.50 1016.59 1016.74 1017.03 1017.28 1017.47 1017.72 1017.91 1018.04 1018.13 1018.22 1018.33 1018.43 1018.51 1018.35 1018.14 1017.49 1017.40 1017.88 1018.62 1018.62 1018.67 1018.66 1018.67 1018.74
1010.29 1011.11 1012.17 1013.13 1013.51 1013.92 1014.36 1014.75 1015.13 1015.43 1015.70 1015.96 1016.23 1016.54 1016.68 1016.72 1016.78 1016.94 1016.97 1017.13 1017.30 1017.49 1017.73 1017.91 1018.08 1018.20 1018.30 1018.41 1018.51 1018.58 1018.69 1018.68 1018.42 1018.07 1017.79 1018.20 1018.27 1018.65 1018.77 1018.86 1018.87 1018.70 1018.89
1010.43 1010.92 1012.75 1013.35 1013.75 1014.09 1014.47 1014.89 1015.25 1015.62 1015.90 1016.12 1016.29 1016.65 1016.86 1016.94 1017.02 1017.24 1017.44 1017.57 1017.71 1017.89 1018.10 1018.28 1018.44 1018.51 1018.60 1018.62 1018.72 1018.85 1018.91 1018.78 1018.70 1018.05 1018.01 1018.63 1018.81 1019.01 1019.02 1019.17 1019.30 1019.07 1019.18
1010.55 1011.27 1012.72 1013.58 1013.96 1014.35 1014.67 1015.00 1015.36 1015.75 1016.05 1016.24 1016.46 1016.81 1017.05 1017.14 1017.19 1017.57 1017.80 1017.91 1018.06 1018.21 1018.32 1018.45 1018.61 1018.74 1018.82 1018.91 1019.00 1019.13 1019.17 1019.00 1018.63 1018.36 1018.28 1018.94 1019.25 1019.35 1019.42 1019.58 1019.62 1019.73 1019.76
1010.81 1011.36 1012.69 1013.73 1014.07 1014.43 1014.80 1015.17 1015.41 1015.79 1016.07 1016.36 1016.61 1016.99 1017.23 1017.40 1017.48 1017.69 1018.05 1018.20 1018.32 1018.42 1018.50 1018.66 1018.78 1018.93 1019.04 1019.14 1019.25 1019.34 1019.34 1019.08 1018.42 1018.52 1018.83 1019.32 1019.65 1019.64 1019.85 1019.97 1020.12 1020.25 1020.24
1011.06 1011.62 1012.47 1013.45 1014.13 1014.59 1014.98 1015.29 1015.61 1015.90 1016.17 1016.46 1016.80 1017.15 1017.42 1017.65 1017.84 1017.98 1018.21 1018.38 1018.51 1018.59 1018.69 1018.80 1018.93 1019.13 1019.23 1019.31 1019.42 1019.53 1019.50 1019.27 1018.81 1018.75 1018.84 1019.46 1019.85 1019.86 1020.08 1020.30 1020.49 1020.63 1020.77
1011.52 1011.80 1012.14 1013.01 1014.05 1014.59 1014.94 1015.45 1015.76 1016.13 1016.39 1016.64 1016.95 1017.29 1017.61 1017.99 1018.09 1018.14 1018.33 1018.44 1018.53 1018.67 1018.83 1018.96 1019.10 1019.34 1019.45 1019.47 1019.58 1019.77 1019.65 1019.35 1018.73 1019.05 1019.03 1019.74 1020.00 1020.18 1020.44 1020.55 1020.79 1020.97 1021.07
1011.73 1011.95 1011.96 1012.44 1013.16 1013.57 1014.00 1015.13 1015.94 1016.22 1016.48 1016.80 1017.02 1017.42 1017.78 1017.55 1017.92 1018.17 1018.10 1018.40 1018.58 1018.73 1018.85 1019.09 1019.31 1019.51 1019.67 1019.72 1019.77 1019.85 1019.82 1018.95 1018.88 1018.93 1019.17 1020.06 1020.33 1020.45 1020.70 1020.82 1021.00 1021.27 1021.43
1012.13 1012.07 1012.28 1012.47 1012.85 1013.35 1013.86 1014.62 1015.24 1015.62 1016.23 1016.52 1016.65 1017.20 1017.07 1016.83 1017.20 1017.40 1018.04 1018.51 1018.67 1018.72 1018.91 1019.21 1019.51 1019.66 1019.65 1019.30 1019.61 1019.93 1019.35 1019.12 1019.03 1019.11 1019.71 1020.33 1020.55 1020.83 1021.03 1021.19 1021.34 1021.61 1021.71
1012.95 1012.75 1012.47 1012.56 1012.81 1013.28 1013.82 1014.11 1014.56 1014.85 1015.77 1015.74 1015.64 1016.31 1016.47 1016.39 1017.02 1017.43 1017.75 1018.20 1018.32 1018.63 1018.65 1019.16 1019.57 1019.45 1018.95 1018.76 1018.87 1018.98 1019.09 1019.20 1019.11 1019.29 1020.04 1020.43 1020.78 1021.06 1021.17 1021.43 1021.68 1021.91 1022.03
1012.52 1012.95 1013.32 1012.82 1012.89 1013.20 1013.57 1013.97 1013.90 1013.98 1014.44 1014.56 1015.02 1015.52 1015.98 1016.12 1016.57 1017.13 1017.09 1017.58 1017.64 1017.64 1017.78 1018.38 1018.61 1018.60 1018.82 1018.95 1018.88 1018.82 1019.16 1019.18 1019.15 1019.31 1020.10 1020.40 1020.72 1020.92 1021.25 1021.48 1021.79 1022.03 1022.18
1011.99 1012.51 1013.08 1013.39 1013.22 1013.09 1013.48 1013.43 1013.53 1013.66 1014.00 1014.40 1014.73 1015.13 1015.41 1015.82 1016.16 1016.38 1016.60 1016.90 1017.19 1017.02 1017.13 1017.49 1017.76 1018.12 1018.61 1018.71 1018.83 1018.88 1019.08 1019.19 1019.20 1019.32 1019.78 1020.54 1020.79 1020.97 1021.21 1021.47 1021.74 1021.99 1022.20
1011.22 1011.68 1012.52 1013.12 1013.49 1012.92 1013.09 1013.26 1013.27 1013.44 1013.70 1014.21 1014.40 1014.77 1015.02 1015.29 1015.77 1016.03 1016.14 1016.38 1016.71 1017.04 1016.99 1017.00 1017.23 1017.80 1018.21 1018.55 1018.80 1018.88 1018.91 1019.02 1019.13 1019.24 1019.54 1020.59 1020.96 1021.09 1021.30 1021.52 1021.81 1022.10 1022.23
1010.14 1010.49 1011.22 1012.09 1012.65 1012.82 1012.49 1013.42 1013.26 1013.28 1013.49 1013.67 1014.01 1014.41 1014.79 1015.01 1015.16 1015.74 1015.88 1015.99 1016.14 1016.60 1016.98 1017.09 1017.24 1017.41 1017.82 1018.11 1018.50 1018.74 1018.85 1018.95 1019.20 1019.29 1019.51 1019.97 1020.86 1021.20 1021.32 1021.49 1021.78 1021.97 1022.21
1010.40 1010.51 1010.62 1010.93 1011.61 1012.19 1012.36 1013.00 1013.64 1013.13 1013.24 1013.42 1013.53 1013.89 1014.35 1014.66 1014.83 1015.01 1015.31 1015.56 1015.68 1016.12 1016.51 1016.83 1017.23 1017.55 1017.80 1018.01 1018.07 1018.46 1018.71 1018.96 1019.06 1019.19 1019.55 1019.81 1020.36 1020.79 1021.40 1021.52 1021.72 1022.04 1022.14
1010.28 1010.42 1010.61 1010.94 1011.06 1011.42 1011.77 1012.44 1013.46 1013.91 1013.60 1013.16 1013.31 1013.49 1013.56 1014.06 1014.42 1014.70 1014.79 1014.95 1015.13 1015.29 1016.17 1016.49 1016.85 1017.27 1017.58 1017.77 1017.94 1018.09 1018.49 1018.88 1019.16 1019.16 1019.41 1019.73 1020.06 1020.42 1020.96 1021.53 1021.76 1021.99 1022.27
1009.86 1010.18 1010.34 1010.58 1010.86 1011.07 1011.18 1011.57 1012.67 1013.63 1013.83 1013.65 1012.93 1012.81 1013.22 1013.33 1013.64 1014.05 1014.41 1014.53 1014.67 1014.97 1015.42 1015.94 1016.44 1016.80 1017.05 1017.36 1017.85 1018.05 1018.40 1018.65 1018.92 1019.12 1019.30 1019.49 1019.82 1020.27 1020.45 1021.07 1021.72 1021.98 1022.23
1010.69 1010.74 1010.64 1010.64 1010.75 1010.86 1010.85 1010.94 1011.82 1012.64 1013.19 1013.41 1013.00 1012.24 1012.46 1012.91 1013.23 1013.49 1013.86 1014.14 1014.17 1014.40 1014.68 1015.35 1015.96 1016.36 1016.89 1017.07 1017.67 1018.22 1018.40 1018.62 1018.69 1018.87 1019.07 1019.13 1019.62 1020.09 1020.35 1020.63 1021.18 1021.43 1022.03
1010.93 1010.86 1010.73 1010.54 1010.55 1010.63 1010.71 1010.59 1010.57 1011.51 1012.14 1012.56 1012.80 1012.66 1012.19 1011.95 1012.26 1012.71 1013.11 1013.41 1013.41 1013.69 1014.08 1014.70 1015.23 1015.81 1016.38 1016.78 1017.11 1017.72 1017.92 1018.27 1018.36 1018.42 1018.73 1018.92 1019.18 1019.63 1019.95 1020.22 1020.58 1020.93 1021.28
1011.42 1011.48 1011.34 1011.22 1011.03 1010.91 1010.92 1010.78 1010.62 1010.48 1010.94 1011.38 1011.81 1012.00 1012.02 1012.20 1012.02 1012.10 1012.38 1012.78 1013.02 1013.25 1013.40 1013.79 1014.42 1015.06 1015.60 1016.19 1016.33 1016.18 1016.73 1016.72 1017.25 1017.90 1018.32 1018.59 1018.88 1019.20 1019.70 1019.81 1020.16 1020.40 1020.75
1011.86 1011.88 1011.62 1011.49 1011.35 1011.23 1011.20 1011.03 1010.84 1010.45 1010.21 1010.29 1010.48 1010.73 1011.05 1011.31 1011.77 1012.14 1012.04 1012.31 1012.62 1012.87 1012.95 1013.03 1013.30 1014.13 1015.00 1015.41 1016.28 1015.74 1015.35 1015.92 1016.47 1017.72 1018.23 1018.41 1018.68 1018.81 1019.20 1019.63 1019.58 1020.06 1020.56
1012.08 1012.04 1011.84 1011.48 1011.16 1011.19 1011.16 1011.08 1010.86 1010.63 1010.36 1009.99 1009.98 1010.11 1010.34 1010.43 1010.65 1011.33 1011.77 1012.03 1012.27 1012.52 1012.58 1012.71 1012.89 1013.03 1013.76 1014.27 1014.87 1015.29 1015.84 1016.19 1016.33 1016.52 1017.45 1018.21 1018.58 1018.55 1018.75 1019.18 1019.45 1019.96 1020.50
1012.17 1012.14 1011.97 1011.65 1011.29 1011.11 1011.05 1010.96 1010.89 1010.81 1010.57 1010.10 1009.82 1009.76 1009.85 1009.97 1010.21 1010.60 1011.23 1011.69 1011.92 1012.11 1012.16 1012.31 1012.43 1012.69 1013.00 1013.47 1013.67 1014.27 1014.44 1015.07 1015.58 1016.07 1016.67 1017.43 1017.83 1018.16 1018.53 1018.89 1019.21 1019.65 1020.09
Wind_Speed
12 16 12 13 15 13 14 13 12 12 13 12 11 10 10 9 7 5 5 5 5 6 10 10 11 12 12 12 12 12 12 12 11 11 11 10 9 10 8 7 8 10 8
15 17 11 15 14 13 13 12 13 13 14 13 12 9 7 7 5 5 4 5 3 4 10 12 12 11 11 11 11 11 11 10 9 7 8 10 8 9 8 9 13 9 8
15 17 15 14 14 12 13 14 14 13 13 13 11 8 6 6 5 4 3 4 5 7 12 13 12 10 11 11 10 10 10 9 5 3 7 5 8 7 8 7 7 6 6
14 16 15 14 12 11 15 15 14 13 12 12 11 8 6 6 7 9 7 5 7 12 14 13 11 10 10 10 10 10 9 6 0 4 2 6 9 6 6 5 6 4 4
13 14 16 13 12 13 15 15 13 11 12 13 12 8 6 7 8 12 15 16 16 15 13 12 10 10 10 10 9 9 8 3 5 5 8 7 6 7 5 4 8 4 1
13 13 16 13 11 12 14 14 13 11 11 13 12 9 6 6 9 12 12 13 13 12 11 10 10 10 9 8 8 7 4 2 7 6 6 9 9 11 14 15 15 19 12
11 16 14 11 10 11 14 13 13 11 10 10 10 9 7 7 8 12 10 11 11 10 9 9 9 8 7 6 6 5 3 4 7 4 8 7 9 12 14 14 15 14 14
10 12 15 10 10 11 12 12 13 11 10 11 11 8 7 7 6 10 9 8 8 8 8 8 8 7 6 5 5 4 1 6 3 5 11 7 8 11 12 12 13 12 12
10 10 14 13 9 9 10 11 10 10 10 11 11 9 7 6 6 7 7 7 7 7 8 8 7 6 5 5 5 4 1 6 7 4 9 5 6 10 11 11 11 11 11
9 10 12 12 11 10 10 7 9 8 9 11 11 10 10 7 6 7 6 7 8 8 8 7 8 6 5 5 6 3 2 7 2 3 7 6 8 11 10 10 8 9 11
7 9 9 11 13 12 10 10 7 6 8 11 10 10 9 8 8 9 6 9 6 8 8 9 7 7 7 6 5 3 5 3 3 1 6 9 9 10 8 8 8 9 10
8 10 9 8 10 8 7 12 10 10 8 9 10 11 9 9 9 7 9 6 4 6 8 9 7 7 8 6 5 5 6 1 1 1 7 9 8 8 7 7 8 8 8
9 6 6 9 8 9 7 6 6 7 8 10 11 11 11 7 7 6 6 6 7 6 7 7 6 6 8 3 5 4 1 2 2 2 9 8 8 7 7 7 8 7 7
10 10 9 9 9 9 7 7 7 7 8 7 9 12 9 6 7 8 6 8 8 8 9 7 7 8 5 5 5 4 4 3 3 1 8 7 7 9 7 7 7 7 7
10 12 11 10 9 9 10 8 8 8 7 9 8 10 9 8 8 8 8 8 7 7 8 9 7 6 7 7 5 5 5 5 4 2 6 7 8 8 8 8 7 7 7
12 11 11 10 11 11 10 11 8 8 8 8 8 9 13 9 8 8 8 8 8 8 8 8 8 7 7 6 6 6 5 5 5 4 4 6 7 8 9 8 7 6 6
10 12 13 13 13 14 13 10 9 8 8 8 9 12 13 11 10 10 8 7 8 8 10 8 8 7 7 6 7 6 5 6 5 6 4 7 7 6 8 9 8 7 6
8 8 9 9 13 14 12 8 8 9 9 8 9 9 14 15 14 11 8 8 8 8 7 7 7 6 6 6 7 6 5 5 7 6 5 4 6 7 5 8 9 8 7
13 13 12 11 12 13 13 10 8 9 7 9 9 9 12 14 14 11 9 9 11 8 7 8 8 8 7 7 7 6 5 5 6 6 7 7 6 5 6 8 6 7 7
10 10 12 10 13 13 11 10 7 6 8 9 9 9 13 11 14 11 9 11 11 8 9 9 10 8 8 7 7 6 5 5 5 6 7 7 7 6 5 9 5 5 7
9 10 11 11 11 9 8 9 8 9 8 9 11 13 14 12 13 12 10 12 11 11 12 12 10 11 8 7 5 4 4 6 7 6 6 7 8 8 7 6 6 6 5
7 8 10 11 11 11 8 7 7 9 10 8 8 10 14 13 14 13 13 12 13 11 13 13 13 9 8 8 7 5 5 6 7 8 7 7 9 7 8 9 8 7 6
5 5 5 8 9 10 10 8 8 7 8 9 10 10 12 15 13 13 14 12 12 11 11 13 13 15 10 9 12 5 4 5 6 6 9 7 8 7 7 8 9 8 7
5 4 4 3 4 7 10 10 13 10 10 8 9 8 9 13 14 14 13 13 13 10 12 13 12 11 9 11 7 10 7 1 4 3 3 6 6 8 9 6 8 7 5
5 6 6 7 5 3 5 8 8 11 9 8 8 11 12 10 13 12 14 12 12 10 12 14 13 15 13 10 10 4 8 3 4 2 4 4 6 6 6 7 5 5 6
6 6 7 8 7 6 5 5 8 10 11 10 10 9 8 7 7 9 10 11 10 11 11 12 15 14 14 13 10 10 9 8 9 5 4 5 6 6 6 4 6 6 6
Wind_Direction
141 140 148 138 138 139 137 139 140 131 123 115 108 101 92 102 97 95 89 87 98 116 117 109 101 89 88 89 88 86 83 79 80 82 79 74 79 74 66 31 336 82 67
139 145 153 151 144 143 149 139 124 121 117 109 100 96 98 99 93 73 80 102 113 122 127 113 98 93 92 91 92 91 91 88 90 106 118 98 73 71 65 48 40 75 71
138 136 154 137 137 146 141 129 129 125 118 115 111 109 109 108 95 79 107 130 132 128 123 104 96 94 96 96 93 92 97 91 103 173 200 85 87 71 66 75 63 70 69
141 142 146 133 139 144 134 135 138 135 131 122 116 114 109 108 105 64 88 131 119 125 107 101 99 104 101 95 89 88 97 94 216 272 261 81 98 82 71 67 58 59 60
142 151 122 135 136 145 144 143 145 142 141 128 120 112 102 116 111 86 88 88 93 102 103 104 108 111 104 95 90 90 96 108 276 304 61 43 32 69 66 55 53 15 90
144 137 132 135 140 142 146 145 145 145 143 135 116 116 117 132 121 100 95 97 98 98 103 106 114 112 105 98 88 84 98 225 275 59 108 89 70 78 81 74 62 58 75
150 120 139 141 139 149 152 150 148 149 147 131 127 124 135 146 138 113 104 102 105 108 111 118 119 115 107 94 83 75 69 282 291 78 72 63 71 76 71 65 62 60 59
148 137 139 155 157 162 152 154 148 158 156 133 128 140 145 148 132 134 113 108 111 118 122 125 122 114 104 96 84 76 38 278 221 89 85 83 79 80 74 71 62 58 58
147 158 148 161 154 135 149 145 148 160 144 139 133 144 139 130 136 129 129 131 130 129 134 131 124 113 110 107 106 107 128 288 281 77 93 83 79 94 90 80 72 67 60
156 171 160 161 164 170 169 143 145 155 151 145 136 133 127 128 137 144 145 157 149 149 151 144 125 127 116 117 117 126 211 265 101 135 104 85 99 101 93 86 77 75 72
178 182 180 176 177 186 189 156 166 164 175 146 141 140 153 179 179 160 124 143 170 176 165 139 134 134 126 118 130 175 239 249 148 124 90 99 112 100 95 94 94 87 81
219 184 187 189 178 183 181 151 188 179 177 191 180 171 200 184 184 193 137 146 210 205 147 147 152 166 195 160 161 213 239 152 200 187 96 110 115 102 96 99 101 95 93
201 237 227 184 194 185 184 190 185 175 181 203 188 182 213 188 159 191 160 179 193 193 183 170 179 209 217 211 163 210 143 232 203 167 106 117 128 114 112 112 108 107 99
190 199 204 245 199 198 193 204 193 200 191 202 192 199 204 200 186 196 192 192 203 174 215 184 203 211 199 213 209 214 193 211 227 191 122 120 153 135 135 133 128 121 111
210 203 203 210 234 206 215 202 214 207 196 202 199 207 204 204 213 205 209 193 208 205 214 188 209 197 211 209 208 217 207 208 214 180 129 124 140 150 150 151 147 140 130
213 207 195 209 212 227 213 227 217 218 210 213 207 206 210 210 213 217 219 214 204 224 222 213 204 207 208 205 210 219 212 213 213 199 151 143 151 158 167 164 163 163 153
228 209 192 201 210 231 213 215 239 226 223 219 217 210 214 209 213 220 225 225 212 211 225 223 220 205 209 197 205 212 214 218 215 198 206 149 159 164 179 176 176 174 174
259 257 249 213 207 216 236 202 233 242 226 228 231 218 215 215 214 212 211 222 220 215 211 224 219 211 216 202 204 197 207 213 212 211 191 205 164 176 175 188 185 187 183
245 246 242 243 245 222 231 202 204 232 257 243 227 228 225 222 219 219 218 216 219 203 208 217 213 210 210 207 213 196 194 202 219 210 202 202 197 196 175 157 174 197 183
265 263 259 249 237 246 238 228 176 199 235 246 240 229 228 227 217 213 225 223 218 210 199 210 218 208 219 202 214 208 195 209 212 210 216 206 202 197 196 158 169 163 175
270 263 258 251 250 246 240 237 187 206 216 236 245 241 223 219 230 218 215 228 218 217 206 212 211 212 214 208 179 204 217 218 214 219 214 203 202 192 203 188 178 190 172
276 275 266 256 246 242 248 257 236 208 232 226 228 244 256 229 216 221 219 222 216 214 215 208 206 206 204 203 187 180 203 201 221 213 212 213 205 192 202 198 199 202 171
38 5 313 288 277 273 266 268 262 239 223 214 220 227 233 243 250 224 225 222 228 219 215 211 206 204 202 198 207 174 203 227 148 187 211 210 211 195 206 199 205 196 200
25 7 351 341 285 265 258 255 254 257 246 237 241 235 225 229 229 245 234 227 228 228 227 216 207 206 196 200 203 236 263 38 187 163 219 216 215 216 196 210 200 201 183
12 349 338 327 328 321 277 259 260 252 259 261 247 243 243 231 226 220 239 237 227 235 231 227 218 199 203 205 202 185 227 207 254 238 160 189 217 218 210 207 173 175 170
355 344 332 322 317 312 304 285 265 267 273 271 256 252 254 248 245 220 214 232 238 232 233 232 229 224 208 220 202 207 196 193 210 200 231 158 180 198 201 201 185 192 174